Location: Larne
(54.8508°N, 5.8183°W)
Time: 12:05:41
(UTC+01:00)

ISS - Pass Details

Date: 04 October 2021
Orbit: 417 x 423 km, 51.6° (Epoch: 16 October)

Event Time Altitude Azimuth Distance (km) Brightness Sun altitude
Rises 20:03:59 0° 274° (W) 2,366 2.3 -11.3°
Reaches altitude 10° 20:06:49 10° 249° (WSW) 1,499 0.0 -11.7°
Maximum altitude 20:08:39 14° 215° (SW) 1,274 -1.0 -12.0°
Drops below altitude 10° 20:10:29 10° 182° (S) 1,496 -1.0 -12.2°
Enters shadow 20:12:23 - 162° (SSE) 2,039 -0.5 -12.5°
